Regional Weather Roundup
Issued by NWS Goodland, KS

Home | Current Version | Previous Version | Text Only | Print | Product List | Glossary Off
Versions: 1 2 3 4 5 6 7 8 9 10 11 12 13 14 15 16 17 18 19 20 21 22 23 24 25 26 27 28 29 30 31 32 33 34 35 36 37 38 39 40 41 42 43 44 45 46 47 48 49 50

000
ASUS43 KGLD 201408
RWRGLD

GOODLAND FORECAST AREA HOURLY WEATHER ROUNDUP
NATIONAL WEATHER SERVICE GOODLAND KS
700 AM MST SAT DEC 20 2014

...OFFICIAL OBSERVATIONS...

CITY           SKY/WX    TMP DP  RH WIND       PRES   REMARKS
GOODLAND KS    CLEAR     28  24  85 W9        30.03R
HILL CITY KS   CLEAR     26  23  88 W5        30.07R
IMPERIAL NEB   PTCLDY    20  16  84 W3        30.01R
MCCOOK NEB     CLEAR     22  20  92 W5        30.04R
AKRON CO       MOCLDY    26  18  71 SW10      30.00R WCI  16
BURLINGTON CO  CLEAR     26  21  81 W10       30.02S WCI  16
LIMON CO       MOCLDY    16  13  88 CALM      30.01F
$$

...UNOFFICIAL OBSERVATIONS...

CITY           SKY/WX    TMP DP  RH WIND       PRES   REMARKS
COLBY KS       CLEAR     27  27 100 W9        30.04S
GOVE KS          N/A     22  32 100 MISG        N/A
NORTON KS      CLEAR     23  19  86 SW6       30.03F
SHARON SPRINGS   N/A     26  24  91 CALM        N/A
TRIBUNE KS     CLEAR     27  27 100 SW10      30.07  WCI  17
KIT CARSON CO    N/A     21  19  91 MISG        N/A
$$


USA.gov is the U.S. government's official web portal to all federal, state and local government web resources and services.